Regional Weather Roundup
Issued by NWS Kansas City/Pleasant Hill, MO

Home | Current Version | Previous Version | Graphics & Text | Print | Product List | Glossary Off
Versions: 1 2 3 4 5 6 7 8 9 10 11 12 13 14 15 16 17 18 19 20 21 22 23 24 25 26 27 28 29 30 31 32 33 34 35 36 37 38 39 40 41 42 43 44 45 46 47 48 49 50

000
ASUS43 KEAX 052210
RWREAX

WEATHER ROUNDUP FOR EASTERN KANSAS AND NORTHWEST MISSOURI
NATIONAL WEATHER SERVICE KANSAS CITY/PLEASANT HILL MO
500 PM CDT TUE MAY 05 2015

KSZ040-057-103>105-MOZ028-029-037-043-052300-
...KANSAS CITY METROPOLITAN AREA...

CITY           SKY/WX    TMP DP  RH WIND       PRES   REMARKS
K.C. INTL      CLOUDY    78  57  48 S13G22    30.01F
K.C. DOWNTOWN  PTSUNNY   81  56  42 S9G21     30.00F
LEES SUMMIT    LGT RAIN  74  58  57 S12G23    30.04S
OLATHE - IXD   CLOUDY    81  57  43 S12       30.01F
OLATHE - OJC   CLOUDY    79  59  50 S9        30.01F
LAWRENCE       CLOUDY    80  56  43 S15G22    29.99F

$$

MOZ001>008-011>017-020>025-030>033-038>040-044>046-053-054-052300-
...NORTHERN AND CENTRAL MISSOURI...

CITY           SKY/WX    TMP DP  RH WIND       PRES   REMARKS
ST. JOSEPH     CLOUDY    78  56  46 S10       30.01F
MOSBY          MOCLDY    81  52  36 S9        30.02S
HARRISONVILLE  PTSUNNY   73  66  78 E6        30.06F
WARRENSBURG    LGT RAIN  70  59  68 S6        30.05S
WHITEMAN AFB   LGT RAIN  75  64  69 SW15G30   30.05S
CLINTON        PTSUNNY   73  66  78 CALM      30.05F
SEDALIA        PTSUNNY   79  60  52 S8        30.05F
WARSAW         NOT AVBL
MARSHALL       PTSUNNY   82  63  51 SE6       30.06S
CHILLICOTHE      N/A     81  56  42 S8        30.04F
MOBERLY        MOSUNNY   81  54  39 S9        30.07
KIRKSVILLE     MOSUNNY   80  57  45 S8        30.07F

$$

MOZ041-047>049-056>058-063>065-088>090-097-052300-
...EASTERN AND SOUTHERN MISSOURI...

CITY           SKY/WX    TMP DP  RH WIND       PRES   REMARKS
ST. LOUIS INTL PTSUNNY   81  56  42 S12       30.11F
SPIRIT OF STL  PTSUNNY   82  58  43 S8        30.09F
COLUMBIA       CLOUDY    71  64  78 SE10      30.09F
JEFFERSON CITY PTSUNNY   73  65  75 NE6       30.07F
MEXICO         CLOUDY    79  63  57 W17G31    30.09
HANNIBAL       MOSUNNY   84  46  26 CALM      30.08F
ROLLA          MOSUNNY   80  58  46 S15       30.08F
LEBANON        MOSUNNY   81  52  36 S12G17    30.09S
OSAGE BEACH    PTSUNNY   81  57  44 S8        30.07F
SPRINGFIELD    MOSUNNY   78  54  43 SE20G25   30.05F
BRANSON        CLOUDY    77  54  44 S14G25    30.09F
NEVADA         PTSUNNY   72  63  73 MISG      30.04S
JOPLIN         PTSUNNY   76  61  59 SE12G24   30.02F
WEST PLAINS    PTSUNNY   79  56  45 SE10      30.12F

$$

IAZ060-094-KSZ022-034>040-054-083-096-NEZ052-066-093-052300-
...KANSAS...SOUTHEAST NEBRASKA AND IOWA...

CITY           SKY/WX    TMP DP  RH WIND       PRES   REMARKS
TOPEKA         PTSUNNY   80  57  45 S15       29.98F
MANHATTAN      MOSUNNY   79  56  45 S18G26    29.94F
EMPORIA        MOSUNNY   79  58  48 S22G30    29.96F
CHANUTE        LGT RAIN  66  63  90 S14G23    30.00S
WICHITA        CLOUDY    73  48  41 S18G26    29.93F
OMAHA          CLOUDY    76  59  55 SE16G22   29.99F
LINCOLN        CLOUDY    76  56  49 S18G29    29.98F
FALLS CITY     CLOUDY    77  55  46 S13       29.99F
LAMONI         PTSUNNY   78  58  49 S10       30.04F
DES MOINES     CLOUDY    77  65  66 VRB3      30.05F

$$



USA.gov is the U.S. government's official web portal to all federal, state and local government web resources and services.